Location: Izdebno
(52.6670°N, 16.2170°E)
Time: 13:01:05
(UTC+02:00)

A-11 Canister half - Pass Details

Date: 26 February 2024
Orbit: 1525 x 1683 km, 47.3° (Epoch: 24 April)

Event Time Altitude Azimuth Distance (km) Brightness Sun altitude
Rises 20:59:25 0° 231° (SW) 4,763 11.8 -31.8°
Reaches altitude 10° 21:02:39 10° 226° (SW) 3,760 11.2 -32.3°
Enters shadow 21:09:04 40° 194° (SSW) 2,134 9.5 -33.1°
